SKYTERRA 1

Last updated on Tue Dec 16 2025 00:02:49 GMT+0000 (Coordinated Universal Time)

1 37218U 10061A 25349.25240551 -.00000101 00000+0 00000+0 0 9997 2 37218 4.7340 50.9115 0004575 180.9386 201.8400 1.00272050 55358
UTC large
Height (km)
Speed (km/s)
/
Latitude / Longitude
Inclination (degrees)
Orbital Period (minutes)
Azimuth
Elevation
Range (km)
Doppler Factor

Next 0 passes for location: London (51.5072 / 0.1276)

Sorry there are no passes over London.